period_start,C,m1,H,J0,J1,J2,J3,J4,J5,JA,JB,JC,JD,JJ,JK,JN,#
2013-10-21 00:00:56,0.01,0.39,0.00,22.89,24.87,27.66,6.08,30.04,1024.43,2055.95,3321.00,3255.00,3528.91,349.42,326.02,13.62,0000 0000 0000 0000 000000
2013-10-21 00:01:56,0.01,0.39,0.00,22.90,24.87,27.66,5.85,29.88,1024.43,2055.95,3321.00,3255.04,3528.91,349.19,325.77,13.63,0000 0000 0000 0000 000000
2013-10-21 00:02:57,-0.01,0.39,0.00,22.91,24.87,27.63,6.23,30.04,1024.43,2055.95,3321.00,3255.02,3528.78,350.76,327.22,13.63,0000 0000 0000 0000 000000
2013-10-21 00:03:57,0.04,0.39,0.00,22.90,24.86,27.61,5.81,29.92,1024.43,2055.96,3321.00,3255.00,3528.70,349.89,326.57,13.64,0000 0000 0000 0000 000000
2013-10-21 00:04:57,0.01,0.39,0.00,22.90,24.86,27.62,6.17,29.92,1024.43,2055.97,3321.00,3255.00,3528.66,350.17,326.49,13.65,0000 0000 0000 0000 000000
2013-10-21 00:05:57,0.01,0.39,0.00,22.89,24.85,27.61,5.84,29.96,1024.43,2055.97,3320.99,3255.00,3528.57,349.92,326.75,13.65,0000 0000 0000 0000 000000
2013-10-21 00:06:57,0.01,0.39,0.00,22.87,24.85,27.57,6.25,30.13,1024.43,2055.97,3320.98,3255.00,3528.40,349.42,325.37,13.66,0000 0000 0000 0000 000000
2013-10-21 00:07:57,0.01,0.39,0.00,22.87,24.85,27.59,5.77,29.83,1024.43,2055.96,3320.98,3255.00,3528.30,350.83,327.44,13.66,0000 0000 0000 0000 000000
2013-10-21 00:08:57,0.01,0.39,0.00,22.87,24.85,27.62,6.18,30.08,1024.43,2055.98,3320.98,3255.00,3528.17,350.40,326.97,13.67,0000 0000 0000 0000 000000
2013-10-21 00:09:58,0.03,0.39,0.00,22.87,24.85,27.63,5.88,30.00,1024.43,2055.99,3320.98,3255.00,3528.17,349.24,325.89,13.67,0000 0000 0000 0000 000000
2013-10-21 00:10:58,0.00,0.39,0.00,22.87,24.85,27.63,5.84,30.08,1024.43,2055.98,3320.98,3255.00,3528.17,348.83,325.50,13.68,0000 0000 0000 0000 000000
2013-10-21 00:11:58,0.00,0.39,0.00,22.84,24.85,27.64,5.88,30.08,1024.43,2055.99,3320.90,3255.00,3528.09,350.33,327.30,13.69,0000 0000 0000 0000 000000
2013-10-21 00:12:58,0.03,0.39,0.00,22.83,24.85,27.62,5.86,30.08,1024.43,2055.99,3320.87,3255.00,3528.10,349.16,325.87,13.69,0000 0000 0000 0000 000000
2013-10-21 00:13:58,0.00,0.39,0.00,22.83,24.84,27.61,5.81,30.00,1024.43,2055.98,3320.77,3255.00,3528.08,349.06,325.90,13.70,0000 0000 0000 0000 000000
2013-10-21 00:14:59,0.01,0.39,0.00,22.84,24.84,27.63,6.08,30.17,1024.43,2055.98,3320.41,3255.00,3528.03,350.18,326.80,13.70,0000 0000 0000 0000 000000
2013-10-21 00:15:59,0.05,0.39,0.00,22.86,24.84,27.62,6.19,30.29,1024.43,2055.98,3320.18,3255.00,3528.03,350.55,327.34,13.71,0000 0000 0000 0000 000000
2013-10-21 00:16:59,0.03,0.39,0.00,22.83,24.82,27.59,5.84,30.04,1024.43,2055.99,3320.07,3255.00,3528.02,348.83,325.40,13.72,0000 0000 0000 0000 000000
2013-10-21 00:17:59,0.02,0.39,0.00,22.83,24.82,27.59,5.88,29.92,1024.43,2055.98,3320.03,3254.99,3528.01,349.98,326.59,13.72,0000 0000 0000 0000 000000
2013-10-21 00:18:59,0.00,0.39,0.00,22.83,24.82,27.58,6.22,30.17,1024.43,2055.99,3320.01,3254.99,3528.02,350.40,326.99,13.73,0000 0000 0000 0000 000000
2013-10-21 00:19:59,0.00,0.39,0.00,22.81,24.82,27.62,6.24,30.25,1024.43,2055.98,3320.00,3254.98,3528.00,351.19,327.91,13.73,0000 0000 0000 0000 000000
2013-10-21 00:20:59,0.00,0.39,0.00,22.82,24.82,27.61,5.75,30.08,1024.43,2055.99,3320.03,3254.99,3528.02,348.44,325.20,13.74,0000 0000 0000 0000 000000
2013-10-21 00:22:00,0.00,0.39,0.00,22.82,24.82,27.59,6.17,30.25,1024.43,2055.99,3320.04,3254.99,3528.00,351.02,327.81,13.74,0000 0000 0000 0000 000000
2013-10-21 00:23:00,0.00,0.39,0.00,22.81,24.82,27.56,6.18,30.38,1024.43,2055.98,3320.01,3254.99,3528.00,350.57,327.20,13.75,0000 0000 0000 0000 000000
2013-10-21 00:24:00,0.00,0.39,0.00,22.79,24.82,27.57,6.10,30.29,1024.43,2055.99,3320.00,3254.99,3528.00,350.06,326.74,13.76,0000 0000 0000 0000 000000
2013-10-21 00:25:00,0.01,0.39,0.00,22.82,24.82,27.59,6.07,30.17,1024.43,2055.99,3320.00,3254.97,3528.00,348.93,325.66,13.76,0000 0000 0000 0000 000000
2013-10-21 00:26:00,0.00,0.39,0.00,22.81,24.82,27.59,5.88,29.92,1024.43,2055.99,3320.00,3254.98,3528.00,350.09,326.30,13.77,0000 0000 0000 0000 000000
2013-10-21 00:27:00,0.00,0.39,0.00,22.79,24.81,27.60,6.17,30.29,1024.43,2055.99,3320.00,3254.99,3528.00,350.19,326.86,13.77,0000 0000 0000 0000 000000
2013-10-21 00:28:00,0.00,0.39,0.00,22.77,24.80,27.58,6.13,30.08,1024.43,2055.99,3320.00,3254.99,3528.00,351.05,327.68,13.78,0000 0000 0000 0000 000000
2013-10-21 00:29:01,0.00,0.39,0.00,22.79,24.80,27.56,5.85,29.96,1024.43,2055.99,3320.00,3254.97,3528.00,349.37,326.35,13.79,0000 0000 0000 0000 000000
2013-10-21 00:30:01,0.00,0.39,0.00,22.83,24.80,27.56,6.25,30.21,1024.43,2055.99,3320.00,3254.96,3528.00,351.08,327.65,13.79,0000 0000 0000 0000 000000
2013-10-21 00:31:01,0.00,0.39,0.00,22.81,24.80,27.56,6.06,30.13,1024.42,2055.99,3320.00,3254.96,3528.00,349.90,326.56,13.80,0000 0000 0000 0000 000000
2013-10-21 00:32:01,0.00,0.39,0.00,22.80,24.80,27.57,6.01,30.00,1024.42,2055.99,3319.98,3254.97,3528.00,349.81,326.49,13.80,0000 0000 0000 0000 000000
2013-10-21 00:33:02,0.00,0.39,0.00,22.79,24.80,27.59,6.21,30.21,1024.40,2055.99,3319.98,3254.95,3528.00,350.82,327.31,13.81,0000 0000 0000 0000 000000
2013-10-21 00:34:02,0.00,0.39,0.00,22.79,24.80,27.55,6.06,30.00,1024.41,2055.99,3319.95,3254.93,3527.99,349.82,326.68,13.81,0000 0000 0000 0000 000000
2013-10-21 00:35:02,0.01,0.39,0.00,22.81,24.79,27.58,5.83,30.00,1024.42,2055.99,3319.91,3254.93,3527.98,349.18,326.17,13.82,0000 0000 0000 0000 000000
2013-10-21 00:36:02,0.00,0.39,0.00,22.79,24.79,27.57,5.98,30.17,1024.39,2055.99,3319.65,3254.91,3527.99,349.35,326.23,13.83,0000 0000 0000 0000 000000
2013-10-21 00:37:02,0.04,0.39,0.00,22.76,24.79,27.54,6.04,30.21,1024.37,2055.99,3319.47,3254.91,3527.97,349.90,326.89,13.83,0000 0000 0000 0000 000000
2013-10-21 00:38:03,0.01,0.39,0.00,22.74,24.78,27.57,5.97,30.21,1024.39,2055.99,3319.40,3254.89,3527.97,349.91,326.64,13.84,0000 0000 0000 0000 000000
2013-10-21 00:39:03,0.02,0.39,0.00,22.74,24.77,27.57,5.88,30.17,1024.41,2055.99,3319.31,3254.88,3527.98,350.23,326.95,13.84,0000 0000 0000 0000 000000
2013-10-21 00:40:03,0.01,0.39,0.00,22.76,24.77,27.57,5.90,30.17,1024.41,2055.99,3319.20,3254.82,3527.98,349.37,326.13,13.85,0000 0000 0000 0000 000000
2013-10-21 00:41:03,0.03,0.39,0.00,22.75,24.77,27.54,6.01,30.33,1024.37,2056.01,3319.11,3254.73,3527.98,348.91,325.70,13.86,0000 0000 0000 0000 000000
2013-10-21 00:42:03,0.05,0.40,0.00,22.76,24.77,27.56,5.95,30.46,1024.41,2056.01,3319.04,3254.43,3527.91,349.72,326.24,13.86,0000 0000 0000 0000 000000
2013-10-21 00:43:04,0.08,0.40,0.00,22.75,24.77,27.58,5.93,30.71,1024.41,2056.00,3319.01,3254.20,3527.64,350.33,327.01,13.87,0000 0000 0000 0000 000000
2013-10-21 00:44:04,0.07,0.40,0.00,22.73,24.77,27.53,6.06,30.83,1024.43,2056.00,3319.00,3254.20,3527.65,350.21,326.78,13.87,0000 0000 0000 0000 000000
2013-10-21 00:45:04,-0.01,0.40,0.00,22.72,24.77,27.53,6.03,30.33,1024.43,2056.01,3319.00,3254.19,3527.78,351.22,327.91,13.88,0000 0000 0000 0000 000000
2013-10-21 00:46:05,-0.00,0.40,0.00,22.70,24.76,27.53,6.17,30.46,1024.42,2056.00,3319.00,3254.24,3527.83,350.46,327.36,13.88,0000 0000 0000 0000 000000
2013-10-21 00:47:05,-0.02,0.40,0.00,22.71,24.75,27.55,5.83,30.29,1024.43,2056.02,3319.00,3254.30,3527.86,348.76,326.05,13.89,0000 0000 0000 0000 000000
2013-10-21 00:48:05,0.00,0.40,0.00,22.72,24.75,27.55,6.18,30.42,1024.43,2056.01,3319.00,3254.32,3527.82,350.35,327.09,13.90,0000 0000 0000 0000 000000
2013-10-21 00:49:05,0.01,0.40,0.00,22.69,24.75,27.55,5.94,30.29,1024.43,2056.00,3319.00,3254.28,3527.67,350.16,326.95,13.90,0000 0000 0000 0000 000000
2013-10-21 00:50:06,0.03,0.40,0.00,22.67,24.75,27.54,5.93,30.08,1024.43,2056.02,3319.00,3254.15,3527.41,349.85,326.90,13.91,0000 0000 0000 0000 000000
2013-10-21 00:51:06,0.05,0.40,0.00,22.66,24.75,27.55,6.20,30.33,1024.43,2056.02,3318.98,3254.11,3527.27,350.88,327.58,13.91,0000 0000 0000 0000 000000
2013-10-21 00:52:06,0.03,0.40,0.00,22.66,24.75,27.54,6.07,30.25,1024.43,2056.01,3318.96,3254.06,3527.21,349.99,326.83,13.92,0000 0000 0000 0000 000000
2013-10-21 00:53:06,0.01,0.40,0.00,22.64,24.75,27.55,6.03,30.29,1024.43,2056.04,3318.96,3254.03,3527.17,350.38,326.64,13.93,0000 0000 0000 0000 000000
2013-10-21 00:54:07,0.02,0.40,0.00,22.64,24.75,27.57,6.16,30.33,1024.43,2056.02,3318.96,3254.02,3527.15,350.10,327.38,13.93,0000 0000 0000 0000 000000
2013-10-21 00:55:07,-0.00,0.40,0.00,22.66,24.75,27.56,6.21,30.29,1024.43,2056.02,3318.96,3254.03,3527.10,351.14,327.96,13.94,0000 0000 0000 0000 000000
2013-10-21 00:56:07,-0.00,0.40,0.00,22.64,24.75,27.55,6.09,30.33,1024.43,2056.08,3318.94,3254.03,3527.07,350.36,326.78,13.94,0000 0000 0000 0000 000000
2013-10-21 00:57:07,0.04,0.40,0.00,22.63,24.75,27.54,5.96,30.13,1024.44,2056.09,3318.70,3254.02,3527.06,349.24,326.16,13.95,0000 0000 0000 0000 000000
2013-10-21 00:58:07,0.05,0.40,0.00,22.63,24.74,27.51,6.16,30.42,1024.43,2056.09,3318.39,3254.01,3527.03,350.30,327.15,13.95,0000 0000 0000 0000 000000
2013-10-21 00:59:07,0.05,0.40,0.00,22.64,24.74,27.52,6.10,30.33,1024.44,2056.09,3318.18,3254.01,3527.03,350.75,327.72,13.96,0000 0000 0000 0000 000000
2013-10-21 01:00:07,0.02,0.40,0.00,22.64,24.73,27.51,5.97,30.17,1024.44,2056.05,3318.07,3254.01,3527.01,349.74,326.61,13.97,0000 0000 0000 0000 000000
2013-10-21 01:01:08,0.00,0.40,0.00,22.63,24.73,27.50,6.18,30.25,1024.45,2056.07,3318.05,3254.03,3527.00,350.93,327.74,13.97,0000 0000 0000 0000 000000
2013-10-21 01:02:08,0.00,0.40,0.00,22.62,24.72,27.50,6.10,30.29,1024.44,2056.06,3318.03,3254.02,3527.00,350.59,327.43,13.98,0000 0000 0000 0000 000000
2013-10-21 01:03:08,0.00,0.40,0.00,22.61,24.72,27.52,5.85,30.25,1024.45,2056.05,3318.00,3254.00,3527.00,348.30,325.31,13.98,0000 0000 0000 0000 000000
2013-10-21 01:04:08,-0.00,0.40,0.00,22.60,24.72,27.57,6.13,30.17,1024.43,2056.04,3318.00,3254.00,3527.00,350.64,327.50,13.99,0000 0000 0000 0000 000000
2013-10-21 01:05:09,-0.01,0.40,0.00,22.59,24.72,27.52,5.86,30.08,1024.44,2056.05,3318.00,3254.00,3527.00,349.46,326.05,14.00,0000 0000 0000 0000 000000
2013-10-21 01:06:09,0.02,0.40,0.00,22.61,24.72,27.54,5.97,30.25,1024.46,2056.06,3318.00,3254.00,3527.00,349.79,326.93,14.00,0000 0000 0000 0000 000000
2013-10-21 01:07:09,0.00,0.40,0.00,22.60,24.72,27.51,5.98,30.21,1024.47,2056.11,3318.00,3254.00,3527.00,349.92,326.64,14.01,0000 0000 0000 0000 000000
2013-10-21 01:08:09,0.04,0.40,0.00,22.62,24.72,27.53,5.92,30.08,1024.45,2056.08,3317.99,3254.00,3527.00,349.46,326.67,14.01,0000 0000 0000 0000 000000
2013-10-21 01:09:10,-0.02,0.40,0.00,22.60,24.72,27.52,6.00,30.17,1024.44,2056.08,3317.99,3254.00,3527.00,349.90,327.02,14.02,0000 0000 0000 0000 000000
2013-10-21 01:10:10,0.01,0.40,0.00,22.60,24.72,27.50,6.15,30.38,1024.47,2056.07,3317.97,3254.00,3527.00,350.65,327.78,14.02,0000 0000 0000 0000 000000
2013-10-21 01:11:10,-0.01,0.40,0.00,22.59,24.71,27.51,6.13,30.25,1024.45,2056.11,3317.95,3254.00,3526.99,350.40,327.28,14.03,0000 0000 0000 0000 000000
2013-10-21 01:12:10,0.03,0.40,0.00,22.59,24.70,27.49,6.08,30.25,1024.47,2056.16,3317.97,3254.00,3526.98,349.36,326.41,14.04,0000 0000 0000 0000 000000
2013-10-21 01:13:11,0.02,0.40,0.00,22.58,24.70,27.45,6.13,30.46,1024.46,2056.20,3317.99,3254.00,3526.99,350.57,327.46,14.04,0000 0000 0000 0000 000000
2013-10-21 01:14:11,0.05,0.40,0.00,22.60,24.70,27.45,6.08,30.38,1024.49,2056.22,3317.96,3254.00,3526.99,350.36,326.98,14.05,0000 0000 0000 0000 000000
2013-10-21 01:15:11,0.03,0.40,0.00,22.59,24.70,27.46,6.09,30.42,1024.48,2056.23,3317.84,3254.00,3526.97,349.88,326.53,14.05,0000 0000 0000 0000 000000
2013-10-21 01:16:12,0.01,0.40,0.00,22.60,24.70,27.48,6.10,30.42,1024.51,2056.26,3317.76,3253.98,3526.98,350.76,327.63,14.06,0000 0000 0000 0000 000000
2013-10-21 01:17:12,0.02,0.40,0.00,22.62,24.70,27.51,6.18,30.58,1024.46,2056.38,3317.61,3253.99,3526.98,349.92,326.81,14.07,0000 0000 0000 0000 000000
2013-10-21 01:18:12,0.13,0.40,0.00,22.60,24.69,27.48,5.98,30.38,1024.48,2056.51,3317.53,3253.99,3526.97,350.02,326.93,14.07,0000 0000 0000 0000 000000
2013-10-21 01:19:12,0.11,0.40,0.00,22.58,24.68,27.46,6.09,30.63,1024.54,2056.67,3317.52,3253.99,3526.98,350.83,327.72,14.08,0000 0000 0000 0000 000000
2013-10-21 01:20:13,0.11,0.40,0.00,22.59,24.67,27.48,6.23,30.54,1024.64,2056.69,3317.35,3253.99,3526.97,350.40,327.35,14.08,0000 0000 0000 0000 000000
2013-10-21 01:21:13,0.05,0.40,0.00,22.60,24.67,27.48,6.06,30.46,1024.77,2056.71,3317.22,3253.99,3526.95,350.07,327.07,14.09,0000 0000 0000 0000 000000
2013-10-21 01:22:13,0.00,0.40,0.00,22.58,24.67,27.45,6.08,30.25,1024.87,2056.53,3317.12,3253.99,3526.87,350.27,327.32,14.10,0000 0000 0000 0000 000000
2013-10-21 01:23:13,-0.04,0.40,0.00,22.57,24.67,27.43,6.07,30.25,1024.83,2056.66,3317.07,3253.98,3526.85,350.24,327.57,14.10,0000 0000 0000 0000 000000
2013-10-21 01:24:14,0.09,0.40,0.00,22.57,24.67,27.43,5.88,30.21,1024.85,2056.73,3317.05,3253.97,3526.78,349.68,326.76,14.11,0000 0000 0000 0000 000000
2013-10-21 01:25:14,0.06,0.40,0.00,22.57,24.67,27.45,6.12,30.29,1024.86,2056.85,3317.05,3253.98,3526.78,351.01,327.57,14.11,0000 0000 0000 0000 000000
2013-10-21 01:26:14,0.07,0.40,0.00,22.59,24.67,27.45,5.85,30.21,1024.85,2056.85,3317.02,3253.93,3526.71,349.94,326.90,14.12,0000 0000 0000 0000 000000
2013-10-21 01:27:15,0.02,0.40,0.00,22.60,24.66,27.44,6.07,30.13,1024.85,2056.83,3317.00,3253.95,3526.51,350.82,327.29,14.12,0000 0000 0000 0000 000000
2013-10-21 01:28:15,0.01,0.40,0.00,22.60,24.65,27.46,6.13,30.13,1024.89,2056.81,3317.00,3253.92,3526.31,350.59,327.10,14.13,0000 0000 0000 0000 000000
2013-10-21 01:29:15,0.01,0.40,0.00,22.58,24.65,27.44,6.01,30.21,1024.86,2056.80,3317.00,3253.90,3526.17,349.71,326.78,14.14,0000 0000 0000 0000 000000
2013-10-21 01:30:15,0.01,0.40,0.00,22.56,24.65,27.46,5.93,30.21,1024.86,2056.82,3317.00,3253.91,3526.10,349.71,326.81,14.14,0000 0000 0000 0000 000000
2013-10-21 01:31:16,0.03,0.40,0.00,22.54,24.65,27.44,5.94,30.04,1024.89,2056.89,3317.00,3253.92,3526.12,349.58,326.50,14.15,0000 0000 0000 0000 000000
2013-10-21 01:32:16,0.03,0.40,0.00,22.55,24.65,27.45,5.91,30.08,1024.91,2056.93,3316.99,3253.91,3526.15,349.54,326.34,14.15,0000 0000 0000 0000 000000
2013-10-21 01:33:16,0.03,0.40,0.00,22.54,24.64,27.44,5.93,30.13,1024.91,2056.93,3316.99,3253.87,3526.10,349.44,326.59,14.16,0000 0000 0000 0000 000000
2013-10-21 01:34:17,0.01,0.40,0.00,22.55,24.64,27.43,5.94,30.21,1024.91,2056.92,3316.99,3253.78,3526.09,349.84,326.95,14.17,0000 0000 0000 0000 000000
2013-10-21 01:35:17,0.01,0.40,0.00,22.53,24.63,27.43,6.27,30.25,1024.92,2056.94,3316.96,3253.68,3526.05,350.82,328.09,14.17,0000 0000 0000 0000 000000
2013-10-21 01:36:17,0.02,0.40,0.00,22.54,24.62,27.41,6.23,30.38,1024.92,2056.95,3316.96,3253.65,3526.02,350.38,327.60,14.18,0000 0000 0000 0000 000000
2013-10-21 01:37:17,0.02,0.40,0.00,22.55,24.62,27.42,5.98,30.21,1024.92,2056.96,3316.97,3253.65,3526.00,350.30,327.43,14.18,0000 0000 0000 0000 000000
2013-10-21 01:38:17,0.01,0.40,0.00,22.54,24.62,27.41,5.97,30.17,1024.92,2056.95,3316.98,3253.73,3526.03,350.11,327.51,14.19,0000 0000 0000 0000 000000
2013-10-21 01:39:18,-0.03,0.40,0.00,22.54,24.62,27.42,6.22,30.29,1024.92,2056.94,3316.98,3253.76,3526.05,350.31,327.41,14.19,0000 0000 0000 0000 000000
2013-10-21 01:40:18,-0.01,0.40,0.00,22.52,24.62,27.42,6.19,30.25,1024.92,2056.95,3316.98,3253.68,3526.02,350.77,327.86,14.20,0000 0000 0000 0000 000000
2013-10-21 01:41:18,0.02,0.40,0.00,22.52,24.61,27.40,6.09,30.38,1024.92,2056.96,3316.97,3253.67,3526.01,350.44,327.43,14.21,0000 0000 0000 0000 000000
2013-10-21 01:42:19,0.00,0.40,0.00,22.52,24.60,27.39,6.08,30.50,1024.92,2056.97,3316.92,3253.60,3526.01,350.37,327.49,14.21,0000 0000 0000 0000 000000
2013-10-21 01:43:19,0.05,0.40,0.00,22.51,24.60,27.40,6.02,30.54,1024.92,2056.97,3316.56,3253.28,3526.00,350.31,327.44,14.22,0000 0000 0000 0000 000000
2013-10-21 01:44:19,0.10,0.40,0.00,22.50,24.60,27.36,6.02,30.54,1024.92,2056.98,3316.43,3253.28,3526.00,349.89,326.99,14.22,0000 0000 0000 0000 000000
2013-10-21 01:45:19,0.01,0.40,0.00,22.52,24.60,27.37,5.86,30.25,1024.92,2056.99,3316.49,3253.50,3526.01,350.21,327.81,14.23,0000 0000 0000 0000 000000
2013-10-21 01:46:20,-0.04,0.40,0.00,22.50,24.60,27.42,6.00,30.29,1024.92,2056.99,3316.52,3253.62,3526.01,349.48,326.67,14.24,0000 0000 0000 0000 000000
2013-10-21 01:47:20,-0.02,0.40,0.00,22.53,24.60,27.39,6.00,30.29,1024.92,2056.99,3316.53,3253.71,3526.01,349.71,327.23,14.24,0000 0000 0000 0000 000000
2013-10-21 01:48:20,-0.02,0.40,0.00,22.53,24.59,27.36,6.04,30.38,1024.92,2056.99,3316.38,3253.65,3526.01,350.11,327.49,14.25,0000 0000 0000 0000 000000
2013-10-21 01:49:20,0.03,0.40,0.00,22.51,24.58,27.37,6.09,30.17,1024.92,2056.99,3316.23,3253.64,3526.03,350.29,327.42,14.25,0000 0000 0000 0000 000000
2013-10-21 01:50:20,0.03,0.40,0.00,22.52,24.57,27.34,5.98,30.25,1024.92,2056.99,3316.13,3253.56,3526.01,350.88,327.97,14.26,0000 0000 0000 0000 000000
2013-10-21 01:51:21,0.03,0.40,0.00,22.53,24.57,27.36,6.18,30.46,1024.92,2056.99,3316.08,3253.58,3526.02,350.44,327.54,14.27,0000 0000 0000 0000 000000
2013-10-21 01:52:21,0.01,0.40,0.00,22.53,24.57,27.34,6.00,30.38,1024.92,2056.99,3316.05,3253.40,3526.01,350.09,326.81,14.27,0000 0000 0000 0000 000000
2013-10-21 01:53:21,0.03,0.41,0.00,22.52,24.57,27.31,5.95,30.33,1024.92,2056.99,3316.04,3253.36,3526.00,349.56,326.74,14.28,0000 0000 0000 0000 000000
2013-10-21 01:54:21,0.01,0.41,0.00,22.52,24.57,27.33,6.01,30.38,1024.92,2056.99,3316.03,3253.36,3526.00,350.60,327.86,14.28,0000 0000 0000 0000 000000
2013-10-21 01:55:22,0.01,0.41,0.00,22.50,24.56,27.31,6.26,30.46,1024.92,2056.99,3316.01,3253.28,3526.01,350.82,327.55,14.29,0000 0000 0000 0000 000000
2013-10-21 01:56:22,0.00,0.41,0.00,22.49,24.55,27.30,6.02,30.46,1024.92,2056.99,3316.01,3253.43,3526.01,350.01,326.84,14.29,0000 0000 0000 0000 000000
2013-10-21 01:57:22,-0.02,0.41,0.00,22.50,24.55,27.33,5.85,30.42,1024.92,2056.99,3316.01,3253.53,3526.01,349.59,326.36,14.30,0000 0000 0000 0000 000000
2013-10-21 01:58:22,-0.01,0.41,0.00,22.50,24.55,27.30,5.95,30.38,1024.92,2056.99,3316.02,3253.58,3526.01,350.63,327.71,14.31,0000 0000 0000 0000 000000
2013-10-21 01:59:23,-0.01,0.40,0.00,22.47,24.55,27.33,5.84,30.42,1024.92,2057.00,3316.00,3253.64,3526.01,348.91,326.18,14.31,0000 0000 0000 0000 000000
2013-10-21 02:00:23,-0.01,0.40,0.00,22.47,24.55,27.35,5.89,30.29,1024.92,2057.00,3316.01,3253.55,3526.00,350.13,327.32,14.32,0000 0000 0000 0000 000000
2013-10-21 02:01:23,0.02,0.41,0.00,22.45,24.55,27.34,6.15,30.46,1024.93,2057.00,3316.00,3253.47,3526.00,350.76,327.93,14.32,0000 0000 0000 0000 000000
2013-10-21 02:02:23,0.01,0.41,0.00,22.48,24.54,27.30,5.94,30.25,1024.93,2057.00,3316.00,3253.46,3526.00,351.10,327.75,14.33,0000 0000 0000 0000 000000
2013-10-21 02:03:24,0.00,0.41,0.00,22.48,24.53,27.35,5.91,30.25,1024.92,2057.00,3316.00,3253.49,3526.00,349.69,326.49,14.34,0000 0000 0000 0000 000000
2013-10-21 02:04:24,0.00,0.41,0.00,22.48,24.52,27.34,6.08,30.29,1024.93,2057.00,3316.00,3253.49,3526.00,350.57,327.73,14.34,0000 0000 0000 0000 000000
2013-10-21 02:05:24,0.00,0.41,0.00,22.47,24.52,27.32,6.03,30.33,1024.93,2057.01,3316.00,3253.49,3526.00,349.22,326.47,14.35,0000 0000 0000 0000 000000
2013-10-21 02:06:25,0.01,0.41,0.00,22.47,24.52,27.30,6.13,30.42,1024.92,2057.02,3315.99,3253.44,3526.00,350.54,327.58,14.35,0000 0000 0000 0000 000000
2013-10-21 02:07:25,0.01,0.41,0.00,22.48,24.52,27.31,6.14,30.38,1024.93,2057.01,3315.98,3253.30,3526.00,350.39,327.64,14.36,0000 0000 0000 0000 000000
2013-10-21 02:08:25,0.02,0.41,0.00,22.45,24.52,27.32,5.91,30.21,1024.92,2057.01,3315.98,3253.22,3526.00,349.56,326.80,14.36,0000 0000 0000 0000 000000
2013-10-21 02:09:25,0.01,0.41,0.00,22.44,24.51,27.32,5.88,30.38,1024.92,2057.02,3315.98,3253.22,3526.00,349.38,326.64,14.37,0000 0000 0000 0000 000000
2013-10-21 02:10:26,0.00,0.41,0.00,22.46,24.50,27.30,5.85,30.13,1024.92,2057.02,3315.98,3253.17,3526.00,349.75,326.38,14.38,0000 0000 0000 0000 000000
2013-10-21 02:11:26,0.00,0.41,0.00,22.46,24.50,27.29,6.12,30.33,1024.92,2057.03,3315.97,3253.18,3526.00,350.07,327.38,14.38,0000 0000 0000 0000 000000
2013-10-21 02:12:26,0.00,0.41,0.00,22.46,24.50,27.26,5.92,30.42,1024.92,2057.04,3315.98,3253.20,3526.00,349.47,326.61,14.39,0000 0000 0000 0000 000000
2013-10-21 02:13:27,0.00,0.41,0.00,22.44,24.50,27.29,5.89,30.38,1024.92,2057.05,3315.98,3253.18,3526.00,349.85,327.21,14.39,0000 0000 0000 0000 000000
2013-10-21 02:14:27,0.01,0.41,0.00,22.44,24.50,27.28,6.12,30.42,1024.92,2057.06,3315.97,3253.13,3526.00,350.54,327.60,14.40,0000 0000 0000 0000 000000
2013-10-21 02:15:27,0.01,0.41,0.00,22.45,24.50,27.29,5.94,30.08,1024.92,2057.06,3315.92,3253.07,3526.00,350.22,327.10,14.41,0000 0000 0000 0000 000000
2013-10-21 02:16:28,0.02,0.41,0.00,22.45,24.49,27.24,6.10,30.17,1024.92,2057.04,3315.76,3253.07,3526.00,350.69,327.87,14.41,0000 0000 0000 0000 000000
2013-10-21 02:17:28,0.02,0.41,0.00,22.46,24.47,27.24,6.14,30.46,1024.92,2057.09,3315.56,3253.06,3525.99,350.55,327.73,14.42,0000 0000 0000 0000 000000
2013-10-21 02:18:28,0.06,0.41,0.00,22.46,24.47,27.24,5.91,30.29,1024.92,2057.12,3315.36,3253.05,3525.97,350.08,327.77,14.42,0000 0000 0000 0000 000000
2013-10-21 02:19:29,0.04,0.41,0.00,22.47,24.47,27.25,5.86,30.21,1024.92,2057.08,3315.27,3253.05,3525.96,349.00,326.27,14.43,0000 0000 0000 0000 000000
2013-10-21 02:20:29,0.00,0.41,0.00,22.46,24.47,27.24,6.16,30.38,1024.92,2057.06,3315.18,3253.03,3525.96,350.90,328.06,14.43,0000 0000 0000 0000 000000
2013-10-21 02:21:29,0.00,0.41,0.00,22.46,24.47,27.26,5.95,30.25,1024.92,2057.04,3315.09,3253.03,3525.94,349.25,326.93,14.44,0000 0000 0000 0000 000000
2013-10-21 02:22:29,0.00,0.41,0.00,22.45,24.47,27.29,5.88,30.08,1024.92,2057.03,3315.04,3253.03,3525.97,349.91,326.81,14.45,0000 0000 0000 0000 000000
2013-10-21 02:23:29,0.01,0.41,0.00,22.44,24.47,27.30,5.98,30.29,1024.92,2057.05,3315.04,3253.02,3525.95,348.91,325.76,14.45,0000 0000 0000 0000 000000
2013-10-21 02:24:30,0.02,0.41,0.00,22.41,24.46,27.25,6.20,30.33,1024.92,2057.08,3315.03,3253.01,3525.94,348.76,326.10,14.46,0000 0000 0000 0000 000000
2013-10-21 02:25:30,0.01,0.41,0.00,22.42,24.45,27.22,6.12,30.38,1024.92,2057.10,3315.01,3253.01,3525.93,350.28,327.68,14.46,0000 0000 0000 0000 000000
2013-10-21 02:26:30,0.02,0.41,0.00,22.42,24.45,27.23,6.15,30.25,1024.92,2057.10,3315.00,3253.00,3525.88,350.23,327.88,14.47,0000 0000 0000 0000 000000
2013-10-21 02:27:30,0.03,0.41,0.00,22.42,24.45,27.26,6.26,30.08,1024.92,2057.16,3315.00,3253.00,3525.87,350.85,328.05,14.48,0000 0000 0000 0000 000000
2013-10-21 02:28:30,0.07,0.41,0.00,22.41,24.45,27.22,6.13,30.00,1024.93,2057.35,3315.00,3253.00,3525.91,349.78,326.60,14.48,0000 0000 0000 0000 000000
2013-10-21 02:29:31,0.10,0.41,0.00,22.43,24.45,27.21,6.17,30.08,1024.93,2057.44,3315.00,3253.01,3525.94,350.66,327.78,14.49,0000 0000 0000 0000 000000
2013-10-21 02:30:31,0.08,0.41,0.00,22.45,24.44,27.19,6.13,30.21,1024.92,2057.64,3315.00,3253.01,3525.92,349.92,327.39,14.49,0000 0000 0000 0000 000000
2013-10-21 02:31:31,0.13,0.41,0.00,22.42,24.44,27.19,5.87,30.04,1024.92,2057.74,3315.00,3253.02,3525.95,349.75,326.74,14.50,0000 0000 0000 0000 000000
2013-10-21 02:32:31,0.07,0.41,0.00,22.44,24.43,27.19,6.03,30.13,1024.92,2057.73,3315.00,3253.01,3525.86,349.66,326.92,14.51,0000 0000 0000 0000 000000
2013-10-21 02:33:32,0.01,0.41,0.00,22.43,24.42,27.22,5.90,29.92,1024.92,2057.80,3315.00,3253.02,3525.85,349.08,326.37,14.51,0000 0000 0000 0000 000000
2013-10-21 02:34:32,0.02,0.41,0.00,22.44,24.42,27.23,6.17,30.13,1024.92,2057.74,3315.00,3253.01,3525.74,350.65,327.84,14.52,0000 0000 0000 0000 000000
2013-10-21 02:35:32,0.00,0.41,0.00,22.45,24.42,27.19,6.08,30.21,1024.92,2057.72,3315.00,3253.02,3525.63,350.07,326.81,14.52,0000 0000 0000 0000 000000
2013-10-21 02:36:33,-0.03,0.41,0.00,22.44,24.42,27.17,5.88,30.08,1024.92,2057.73,3314.98,3253.00,3525.53,349.81,327.42,14.53,0000 0000 0000 0000 000000